Regional Weather Roundup
Issued by NWS

Home | Current Version | Previous Version | Text Only | Print | Product List | Glossary On
Versions: 1 2 3 4 5 6 7 8 9 10 11 12 13 14 15 16 17 18 19 20 21 22 23 24 25 26 27 28 29 30 31 32 33 34 35 36 37 38 39 40 41 42 43 44 45 46 47 48 49 50
000
ASUS42 KFFC 011403
RWRGA
WEATHER ROUNDUP FOR GEORGIA
NATIONAL WEATHER SERVICE PEACHTREE CITY GA
1000 AM EDT MON SEP 01 2014

NOTE: "FAIR" INDICATES FEW OR NO CLOUDS BELOW 12,000 FEET WITH NO
SIGNIFICANT WEATHER AND/OR OBSTRUCTIONS TO VISIBILITY.

* = USE WITH CAUTION. THE STATIONS MARKED WITH AN ASTERISK MAY NOT
REPORT WEATHER SUCH AS PRECIPITATION, FOG, OR THUNDER AND ARE NOT
QUALITY CONTROLLED BY NWS.

THE REMARK "TC" DENOTES TEMPERATURE READING IN DEGREES CELSIUS.

GAZ001>058-011500-
NORTH GEORGIA

CITY           SKY/WX    TMP DP  RH WIND       PRES   REMARKS
ATLANTA        PTSUNNY   81  72  74 CALM      30.15S
ATHENS         PTSUNNY   82  71  69 CALM      30.15S
CHAMBLEE       MOSUNNY   81  70  69 CALM      30.15F
PEACHTREE CITY MOSUNNY   78  72  81 CALM      30.16R
ROME           PTSUNNY   77  72  84 NE3       30.13S
WEST ATLANTA   MOSUNNY   81  72  74 W3        30.14F
GAINESVILLE    PTSUNNY   80  71  74 CALM      30.18S
CARTERSVILLE   MOSUNNY   80  71  74 CALM      30.14S


CITY           SKY/WX    TMP DP  RH WIND       PRES   REMARKS
DALTON*        SUNNY     77  72  83 CALM      30.14R
LAWRENCEVILLE* SUNNY     79  68  69 CALM      30.15F
MARIETTA       PTSUNNY   79  72  79 CALM      30.16S
KENNESAW*      PTSUNNY   81  70  69 CALM      30.17S
$$

GAZ059>098-102>109-011500-
CENTRAL GEORGIA

CITY           SKY/WX    TMP DP  RH WIND       PRES   REMARKS
AUGUSTA-BUSH   MOSUNNY   81  74  79 CALM      30.13R HAZE
AUGUSTA-DANIEL SUNNY     83  73  72 VRB5      30.14S
COLUMBUS       SUNNY     83  70  64 N3        30.13S
MACON          SUNNY     81  75  82 CALM      30.14R
ROBINS AFB     SUNNY     80  74  83 CALM      30.13R


CITY           SKY/WX    TMP DP  RH WIND       PRES   REMARKS
LAGRANGE*      SUNNY     86  76  73 CALM      30.15S HX  96
SYLVANIA*      MOSUNNY   69  68  98 CALM      30.14F
$$

GAZ099>101-110>166-011500-
SOUTH GEORGIA

CITY           SKY/WX    TMP DP  RH WIND       PRES   REMARKS
SAVANNAH       PTSUNNY   84  72  67 NW5       30.13S
VALDOSTA       MOSUNNY   80  75  84 CALM      30.14R
ALMA           SUNNY     81  75  82 CALM      30.13S
ST SIMONS      SUNNY     83  74  74 CALM      30.12S
FT STEWART     MOSUNNY   83  72  70 CALM      30.12S
ALBANY         SUNNY     82  74  76 CALM      30.15R
HUNTER AFB     MOSUNNY   84  73  69 VRB1      30.11F HX  91
MOODY AFB      MOSUNNY   81  74  79 SW3       30.14R
BRUNSWICK      SUNNY     82  72  69 CALM      30.13S


CITY           SKY/WX    TMP DP  RH WIND       PRES   REMARKS
BAINBRIDGE*    SUNNY     84  77  79 CALM      30.14R HX  94
MOULTRIE*      SUNNY     82  77  83 CALM      30.15R HX  91
VIDALIA*         N/A     81  75  83 N6        30.14S
WAYCROSS*      SUNNY     85  78  80 CALM      30.13R HX  96
DOUGLAS*       SUNNY     86  73  66 CALM      30.14S HX  93
$$



USA.gov is the U.S. government's official web portal to all federal, state and local government web resources and services.